Location: Brabourne
(51.1333°N, 1.0000°E)
Time: 20:17:04
(UTC+00:00)

Cosmos 1825 Rocket - Pass Details

Date: 25 October 2021
Orbit: 604 x 631 km, 82.5° (Epoch: 03 December)

Event Time Altitude Azimuth Distance (km) Brightness Sun altitude
Rises 20:00:50 0° 338° (NNW) 2,877 7.5 -31.4°
Reaches altitude 10° 20:03:30 10° 322° (NW) 1,964 6.8 -31.7°
Maximum altitude 20:06:41 20° 274° (W) 1,398 6.0 -32.2°
Enters shadow 20:08:28 16° 243° (WSW) 1,591 6.0 -32.5°
